Miscellaneous Local Product
Issued by NWS North Platte, NE

Home | Current Version | Previous Version | Text Only | Print | Product List | Glossary On
Versions: 1 2 3 4 5 6 7 8 9 10 11 12 13 14 15 16 17 18 19 20 21 22 23 24 25 26 27 28 29 30 31 32 33 34 35 36 37 38 39 40 41 42 43 44 45 46 47 48 49 50
000
AXUS43 KLBF 261410
MISLBF


WESTERN AND NORTH CENTRAL NEBRASKA HOURLY WEATHER ROUNDUP
NATIONAL WEATHER SERVICE NORTH PLATTE NE
900 AM CDT WED APR 26 2017

NOTE: "FAIR" INDICATES FEW OR NO CLOUDS BELOW 12,000 FEET WITH NO
SIGNIFICANT WEATHER AND/OR OBSTRUCTIONS TO VISIBILITY.

NOTE: STATIONS NOT REPORTING VARIABLES SUCH AS SKY/WEATHER OR
PRESSURE ARE PROVIDED BY RAWS AND APRS NETWORKS AND ARE NOT UNDER
NATIONAL WEATHER SERVICE QUALITY CONTROL.

...OBSERVATIONS IN AND NEAR THE EASTERN PANHANDLE OF NEBRASKA...

CITY           SKY/WX    TMP DP  RH WIND       PRES   REMARKS
PINE RIDGE     CLOUDY    31  26  82 N9        29.88R WCI  23
CHADRON        CLOUDY    30  26  85 NE6       29.88S WCI  24
ALLIANCE       CLOUDY    30  26  85 N10       29.83R WCI  21
SIDNEY         MOSUNNY   34  27  75 N17       29.83R WCI  23
CRESCENT LAKE    N/A     30  26  86 N15G23      N/A  WCI  19
$$

...OBSERVATIONS IN NORTHERN NEBRASKA AND FAR SOUTHERN SOUTH DAKOTA...

CITY           SKY/WX    TMP DP  RH WIND       PRES   REMARKS
WINNER         CLOUDY    34  29  82 NW23G29   29.80F WCI  22
VALENTINE      CLOUDY    33  26  75 NW15      29.82S WCI  23
THEDFORD       CLOUDY    33  28  83 NW23      29.80F WCI  20
AINSWORTH      CLOUDY    32  29  88 NW23G30   29.79F WCI  19
O`NEILL        CLOUDY    33  29  85 NW25      29.75S WCI  20
ORD            CLOUDY    34  28  79 NW21      29.74F WCI  22
BROKEN BOW     CLOUDY    34  27  75 NW24G30   29.76S WCI  21
VALENTINE NWR    N/A     30  26  84 NW20G29     N/A  WCI  17
HALSEY           N/A     31  26  82 NW13G26     N/A  WCI  21
BUTTE            N/A     32  28  83 N20G30      N/A  WCI  20
CHAMBERS         N/A     33  30  90 N8          N/A  WCI  26
EWING            N/A     33  30  90 NW15G24     N/A  WCI  23
$$

...OBSERVATIONS IN SOUTHWEST NEBRASKA AND FAR NORTHEAST COLORADO...

CITY           SKY/WX    TMP DP  RH WIND       PRES   REMARKS
HOLYOKE        CLOUDY    34  30  86 N15       29.84S WCI  24
IMPERIAL       CLOUDY    33  25  72 N21G28    29.82F WCI  21
OGALLALA       CLOUDY    34  26  73 NW17G23   29.84R WCI  24
NORTH PLATTE   CLOUDY    35  26  69 NW15G26   29.81S WCI  25
MCCOOK         CLOUDY    36  27  69 N18       29.80F WCI  26
LEXINGTON      CLOUDY    35  28  74 N21G28    29.77F WCI  24
STAPLETON        N/A     32  28  83 CALM        N/A
GOTHENBURG       N/A     33  25  73 NW16        N/A  WCI  22
CALLAWAY         N/A     31  27  84 NW21        N/A  WCI  19
$$

...OBSERVATIONS IN CENTRAL LINCOLN COUNTY AREA...

CITY           SKY/WX    TMP DP  RH WIND       PRES   REMARKS
N.P. AIRPORT   CLOUDY    35  26  69 NW15G26   29.81S WCI  25
N.P. DOWNTOWN    N/A     33  27  79 NW13G20     N/A  WCI  24
N.P. SOUTHEAST   N/A     33  26  76 N10G18      N/A  WCI  25
N.P. HILLCREST   N/A     33  28  81 N18         N/A  WCI  22
$$

...SOME OBSERVATIONS FROM AROUND THE REGION...

CITY           SKY/WX    TMP DP  RH WIND       PRES   REMARKS
DENVER         SUNNY     35  28  75 SW12      29.83S WCI  27
LIMON          SUNNY     34  28  79 NW18      29.83R WCI  23
ASPEN          CLOUDY    32  27  81 SE3       29.91F
LARAMIE        SUNNY     30  25  81 SE7       29.82S WCI  23
CASPER         SUNNY     37  30  75 SW13G20   29.79F WCI  29
CHEYENNE       SUNNY     38  25  59 NW5       29.80S WCI  34
SCOTTSBLUFF    MOSUNNY   34  27  75 N5        29.85S WCI  30
GRAND ISLAND   CLOUDY    36  30  79 NW22G29   29.72F WCI  25
OMAHA          CLOUDY    37  31  78 NW21      29.66S WCI  26
SIOUX FALLS    CLOUDY    35  33  92 NW20      29.66R WCI  24
PIERRE         CLOUDY    33  26  75 N21G26    29.83R WCI  21
RAPID CITY     CLOUDY    29  24  82 NW15      29.87S WCI  18
BISMARCK       CLOUDY    32  24  72 N14       29.89S WCI  22
KANSAS CITY    CLOUDY    41  38  89 NW13      29.63R
HILL CITY      CLOUDY    38  27  64 N22G30    29.80S WCI  27
WICHITA        CLOUDY    44  36  73 N22G33    29.67R
DODGE CITY     MOSUNNY   41  30  65 N22G32    29.74F
OKLAHOMA CITY  LGT RAIN  45  43  93 N25G35    29.60R
DALLAS         CLOUDY    66  62  87 N16       29.49
AMARILLO       CLOUDY    40  37  89 N23       29.78S WCI  30
$$




USA.gov is the U.S. government's official web portal to all federal, state and local government web resources and services.